Location: Palomar Mountain Lodge
(33.3110°N, 116.8495°W)
Time: 21:22:15
(UTC-08:00)

Tiangong - Visible Passes

Search period start: 13 February 2026 00:00
Search period end: 23 February 2026 00:00
Orbit: 386 x 392 km, 41.5° (Epoch: 11 February)

Date Brightness Start Highest point End Pass type
(mag) Time Alt. Az. Time Alt. Az. Time Alt. Az.
13 Feb -0.2 18:33:09 10° WNW 18:35:42 22° N 18:37:11 16° NNE visible
14 Feb 0.3 19:12:24 10° NW 19:13:56 17° NNW 19:13:56 17° NNW visible
15 Feb -0.1 18:13:42 10° NW 18:16:02 19° N 18:18:21 10° NE visible
16 Feb -0.3 18:52:29 10° NW 18:54:54 20° N 18:55:01 20° N visible
17 Feb -0.1 17:53:51 10° NW 17:56:09 18° N 17:58:26 10° NE visible
17 Feb 0.5 19:30:41 10° NW 19:31:39 17° NW 19:31:39 17° NW visible
18 Feb -0.6 18:32:11 10° NW 18:34:52 25° NNE 18:36:00 20° NE visible
19 Feb -1.3 19:10:13 10° WNW 19:12:39 44° NNW 19:12:39 44° NNW visible
20 Feb -1.3 18:11:36 10° NW 18:14:34 35° NNE 18:17:04 13° E visible
20 Feb 1.0 19:48:32 10° W 19:49:22 16° W 19:49:22 16° W visible
21 Feb -2.0 18:49:37 10° WNW 18:52:46 69° SSW 18:53:50 37° SE visible
22 Feb 0.4 19:28:29 10° W 19:30:36 17° SW 19:30:43 17° SW visible
